START_TIME,STEP,MOV.,H8,t_acc.,H43,t_acc.,M25,t_acc.,H9,t_acc.
1979-07-27 12:00:28.760 ,0,0,0.,12.0,0.,12.0,0.,12.0,0.,12.0
1979-07-27 12:00:40.760 ,0,0,0.,12.0,0.,12.0,0.,12.0,0.,12.0
1979-07-27 12:00:52.760 ,1,0,0.,12.0,0.,12.0,0.,12.0,0.,12.0
1979-07-27 12:01:04.760 ,1,0,0.,12.0,0.,12.0,0.,12.0,0.,12.0
1979-07-27 12:01:16.760 ,1,0,0.,12.0,0.,12.0,0.,12.0,0.,12.0
1979-07-27 12:01:28.760 ,1,0,0.,12.0,0.,12.0,0.,12.0,0.,12.0
1979-07-27 12:01:40.760 ,2,0,0.,12.0,0.,12.0,0.,12.0,0.,12.0
1979-07-27 12:01:52.760 ,2,0,0.,12.0,0.,12.0,0.,12.0,0.,12.0
1979-07-27 12:02:04.760 ,2,0,0.,12.0,0.,12.0,0.,12.0,0.,12.0
1979-07-27 12:02:16.760 ,2,0,0.,12.0,0.,12.0,0.,12.0,0.,12.0
1979-07-27 12:02:28.760 ,3,0,0.,12.0,0.,12.0,0.,12.0,0.,12.0
1979-07-27 12:02:40.760 ,3,0,0.,12.0,0.,12.0,0.,12.0,0.,12.0
1979-07-27 12:02:52.760 ,3,0,0.,12.0,0.,12.0,0.,12.0,0.,12.0
1979-07-27 12:03:04.760 ,3,0,0.,12.0,0.,12.0,0.,12.0,0.,12.0
1979-07-27 12:03:16.760 ,4,0,0.,12.0,0.,12.0,0.,12.0,0.,12.0
1979-07-27 12:03:28.760 ,4,0,0.,12.0,0.,12.0,0.,12.0,0.,12.0
1979-07-27 12:03:40.760 ,4,0,0.,12.0,0.,12.0,0.,12.0,0.,12.0
1979-07-27 12:03:52.760 ,4,0,0.,12.0,0.,12.0,0.,12.0,0.,12.0
1979-07-27 12:04:04.760 ,5,0,0.,12.0,0.,12.0,0.,12.0,0.,12.0
1979-07-27 12:04:16.760 ,5,0,0.,12.0,0.,12.0,0.,12.0,0.,12.0
1979-07-27 12:04:28.760 ,5,0,0.,12.0,0.,12.0,0.,12.0,0.,12.0
1979-07-27 12:04:40.760 ,5,0,0.,12.0,0.,12.0,0.,12.0,0.,12.0
1979-07-27 12:04:52.760 ,6,0,0.,12.0,0.,12.0,0.,12.0,0.,12.0
1979-07-27 12:05:04.760 ,6,0,0.,12.0,0.,12.0,0.,12.0,0.,12.0
1979-07-27 12:05:16.760 ,6,0,0.,12.0,0.,12.0,0.,12.0,0.,12.0
1979-07-27 12:05:28.760 ,6,0,0.,12.0,0.,12.0,0.,12.0,0.,12.0
1979-07-27 12:05:40.760 ,7,0,0.,12.0,0.,12.0,0.,12.0,0.,12.0
1979-07-27 12:05:52.760 ,7,0,0.,12.0,0.,12.0,0.,12.0,0.,12.0
1979-07-27 12:06:04.760 ,7,0,0.,12.0,0.,12.0,0.,12.0,0.,12.0
1979-07-27 12:06:16.760 ,7,0,0.,12.0,0.,12.0,0.,12.0,0.,12.0
1979-07-27 12:06:28.760 ,7,0,0.,12.0,0.,12.0,0.,12.0,0.,12.0
1979-07-27 12:06:40.760 ,7,0,0.,12.0,0.,12.0,0.,12.0,0.,12.0
1979-07-27 12:06:52.760 ,7,0,0.,12.0,0.,12.0,0.,12.0,0.,12.0
1979-07-27 12:07:04.760 ,7,0,0.,12.0,0.,12.0,0.,12.0,0.,12.0
1979-07-27 12:07:16.760 ,6,0,0.,12.0,0.,12.0,0.,12.0,0.,12.0
1979-07-27 12:07:28.760 ,6,0,0.,12.0,0.,12.0,0.,12.0,0.,12.0
1979-07-27 12:07:40.760 ,6,0,0.,12.0,0.,12.0,0.,12.0,0.,12.0
1979-07-27 12:07:52.760 ,6,0,0.,12.0,0.,12.0,0.,12.0,0.,12.0
1979-07-27 12:08:04.760 ,5,0,0.,12.0,0.,12.0,0.,12.0,0.,12.0
1979-07-27 12:08:16.760 ,5,0,0.,12.0,0.,12.0,0.,12.0,0.,12.0
1979-07-27 12:08:28.760 ,5,0,0.,12.0,0.,12.0,0.,12.0,0.,12.0
1979-07-27 12:08:40.760 ,5,0,0.,12.0,0.,12.0,0.,12.0,0.,12.0
1979-07-27 12:08:52.760 ,4,0,0.,12.0,0.,12.0,0.,12.0,0.,12.0
1979-07-27 12:09:04.760 ,4,0,0.,12.0,0.,12.0,0.,12.0,0.,12.0
1979-07-27 12:09:16.760 ,4,0,0.,12.0,0.,12.0,0.,12.0,0.,12.0
1979-07-27 12:09:28.760 ,4,0,0.,12.0,0.,12.0,0.,12.0,0.,12.0
1979-07-27 12:09:40.760 ,3,0,0.,12.0,0.,12.0,0.,12.0,0.,12.0
1979-07-27 12:09:52.760 ,3,0,0.,12.0,0.,12.0,0.,12.0,0.,12.0
1979-07-27 12:10:04.760 ,3,0,0.,12.0,0.,12.0,0.,12.0,0.,12.0
1979-07-27 12:10:16.760 ,3,0,0.,12.0,0.,12.0,0.,12.0,0.,12.0
1979-07-27 12:10:28.760 ,2,0,0.,12.0,0.,12.0,0.,12.0,0.,12.0
1979-07-27 12:10:40.760 ,2,0,0.,12.0,0.,12.0,0.,12.0,0.,12.0
1979-07-27 12:10:52.760 ,2,0,0.,12.0,0.,12.0,0.,12.0,0.,12.0
1979-07-27 12:11:04.760 ,2,0,0.,12.0,0.,12.0,0.,12.0,0.,12.0
1979-07-27 12:11:16.760 ,1,0,0.,12.0,0.,12.0,0.,12.0,0.,12.0
1979-07-27 12:11:28.760 ,1,0,0.,12.0,0.,12.0,0.,12.0,0.,12.0
1979-07-27 12:11:40.760 ,1,0,0.,12.0,0.,12.0,0.,12.0,0.,12.0
1979-07-27 12:11:52.760 ,1,0,0.,12.0,0.,12.0,0.,12.0,0.,12.0
1979-07-27 12:12:04.760 ,0,0,0.,12.0,0.,12.0,0.,12.0,0.,12.0
1979-07-27 12:12:16.760 ,0,0,0.,12.0,0.,12.0,0.,12.0,0.,12.0
1979-07-27 12:12:28.760 ,0,0,0.,12.0,0.,12.0,0.,12.0,0.,12.0
1979-07-27 12:12:40.760 ,0,0,0.,12.0,0.,12.0,0.,12.0,0.,12.0
1979-07-27 12:12:52.760 ,0,0,0.,12.0,0.,12.0,0.,12.0,0.,12.0
1979-07-27 12:13:04.760 ,0,0,0.,12.0,0.,12.0,0.,12.0,0.,12.0
1979-07-27 12:13:16.760 ,0,0,0.,12.0,0.,12.0,0.,12.0,0.,12.0
1979-07-27 12:13:28.760 ,0,0,0.,12.0,0.,12.0,0.,12.0,0.,12.0
1979-07-27 12:13:40.760 ,1,0,0.,12.0,0.,12.0,0.,12.0,0.,12.0
1979-07-27 12:13:52.760 ,1,0,0.,12.0,0.,12.0,0.,12.0,0.,12.0
1979-07-27 12:14:04.760 ,1,0,0.,12.0,0.,12.0,0.,12.0,0.,12.0
1979-07-27 12:14:16.760 ,1,0,0.,12.0,0.,12.0,0.,12.0,0.,12.0
1979-07-27 12:14:28.760 ,2,0,0.,12.0,0.,12.0,0.,12.0,0.,12.0
1979-07-27 12:14:40.760 ,2,0,0.,12.0,0.,12.0,0.,12.0,0.,12.0
1979-07-27 12:14:52.760 ,2,0,0.,12.0,0.,12.0,0.,12.0,0.,12.0
1979-07-27 12:15:04.760 ,2,0,0.,12.0,0.,12.0,0.,12.0,0.,12.0
1979-07-27 12:15:16.760 ,3,0,0.,12.0,0.,12.0,0.,12.0,0.,12.0
1979-07-27 12:15:28.760 ,3,0,0.,12.0,0.,12.0,0.,12.0,0.,12.0
1979-07-27 12:15:40.760 ,3,0,0.,12.0,0.,12.0,0.,12.0,0.,12.0
1979-07-27 12:15:52.760 ,3,0,0.,12.0,0.,12.0,0.,12.0,0.,12.0
1979-07-27 12:16:04.760 ,4,0,0.,12.0,0.,12.0,0.,12.0,0.,12.0
1979-07-27 12:16:16.760 ,4,0,0.,12.0,0.,12.0,0.,12.0,0.,12.0
1979-07-27 12:16:28.760 ,4,0,0.,12.0,0.,12.0,0.,12.0,0.,12.0
1979-07-27 12:16:40.760 ,4,0,0.,12.0,0.,12.0,0.,12.0,0.,12.0
1979-07-27 12:16:52.760 ,5,0,0.,12.0,0.,12.0,0.,12.0,0.,12.0
1979-07-27 12:17:04.760 ,5,0,0.,12.0,0.,12.0,0.,12.0,0.,12.0
1979-07-27 12:17:16.760 ,5,0,0.,12.0,0.,12.0,0.,12.0,0.,12.0
1979-07-27 12:17:28.760 ,5,0,0.,12.0,0.,12.0,0.,12.0,0.,12.0
1979-07-27 12:17:40.760 ,6,0,0.,12.0,0.,12.0,0.,12.0,0.,12.0
1979-07-27 12:17:52.760 ,6,0,0.,12.0,0.,12.0,0.,12.0,0.,12.0
1979-07-27 12:18:04.760 ,6,0,0.,12.0,0.,12.0,0.,12.0,0.,12.0
1979-07-27 12:18:16.760 ,6,0,0.,12.0,0.,12.0,0.,12.0,0.,12.0
1979-07-27 12:18:28.760 ,7,0,0.,12.0,0.,12.0,0.,12.0,0.,12.0
1979-07-27 12:18:40.760 ,7,0,0.,12.0,0.,12.0,0.,12.0,0.,12.0
1979-07-27 12:18:52.760 ,7,0,0.,12.0,0.,12.0,0.,12.0,0.,12.0
1979-07-27 12:19:04.760 ,7,0,0.,12.0,0.,12.0,0.,12.0,0.,12.0
1979-07-27 12:19:16.760 ,3,1,0.,12.0,0.,12.0,0.,12.0,0.,12.0
1979-07-27 12:19:28.760 ,3,1,0.,12.0,0.,12.0,0.,12.0,0.,12.0
1979-07-27 12:19:40.760 ,0,1,0.,12.0,0.,12.0,0.,12.0,0.,12.0
1979-07-27 12:19:52.760 ,0,1,0.,12.0,0.,12.0,0.,12.0,0.,12.0
1979-07-27 12:20:04.760 ,4,1,0.,12.0,0.,12.0,0.,12.0,0.,12.0
1979-07-27 12:20:16.760 ,4,1,0.,12.0,0.,12.0,0.,12.0,0.,12.0
1979-07-27 12:20:28.760 ,7,1,0.,12.0,0.,12.0,0.,12.0,0.,12.0
1979-07-27 12:20:40.760 ,7,1,0.,12.0,0.,12.0,0.,12.0,0.,12.0
1979-07-27 12:20:52.760 ,3,1,0.,12.0,0.,12.0,0.,12.0,0.,12.0
1979-07-27 12:21:04.760 ,3,1,0.,12.0,0.,12.0,0.,12.0,0.,12.0
1979-07-27 12:21:16.760 ,0,1,0.,12.0,0.,12.0,0.,12.0,0.,12.0
1979-07-27 12:21:28.760 ,0,1,0.,12.0,0.,12.0,0.,12.0,0.,12.0
1979-07-27 12:21:40.760 ,4,1,0.,12.0,0.,12.0,0.,12.0,0.,12.0
1979-07-27 12:21:52.760 ,4,1,0.,12.0,0.,12.0,0.,12.0,0.,12.0
1979-07-27 12:22:04.760 ,7,1,0.,12.0,0.,12.0,0.,12.0,0.,12.0
1979-07-27 12:22:16.760 ,7,1,0.,12.0,0.,12.0,0.,12.0,0.,12.0
1979-07-27 12:22:28.760 ,3,1,0.,12.0,0.,12.0,0.,12.0,0.,12.0
1979-07-27 12:22:40.760 ,3,1,0.,12.0,0.,12.0,0.,12.0,0.,12.0
1979-07-27 12:22:52.760 ,0,1,0.,12.0,0.,12.0,0.,12.0,0.,12.0
1979-07-27 12:23:04.760 ,0,1,0.,12.0,0.,12.0,0.,12.0,0.,12.0
1979-07-27 12:23:16.760 ,4,1,0.,12.0,0.,12.0,0.,12.0,0.,12.0
1979-07-27 12:23:28.760 ,4,1,0.,12.0,0.,12.0,0.,12.0,0.,12.0
1979-07-27 12:23:40.760 ,7,1,0.,12.0,0.,12.0,0.,12.0,0.,12.0
1979-07-27 12:23:52.760 ,7,1,0.,12.0,0.,12.0,0.,12.0,0.,12.0
1979-07-27 12:24:04.760 ,3,1,0.,12.0,0.,12.0,0.,12.0,0.,12.0
1979-07-27 12:24:16.760 ,3,1,0.,12.0,0.,12.0,0.,12.0,0.,12.0
1979-07-27 12:24:28.760 ,0,1,0.,12.0,0.,12.0,0.,12.0,0.,12.0
1979-07-27 12:24:40.760 ,0,1,0.,12.0,0.,12.0,0.,12.0,0.,12.0
1979-07-27 12:24:52.760 ,4,1,0.,12.0,0.,12.0,0.,12.0,0.,12.0
1979-07-27 12:25:04.760 ,4,1,0.,12.0,0.,12.0,0.,12.0,0.,12.0
1979-07-27 12:25:16.760 ,7,1,0.,12.0,0.,12.0,0.,12.0,0.,12.0
1979-07-27 12:25:28.760 ,7,1,0.,12.0,0.,12.0,0.,12.0,0.,12.0
1979-07-27 12:25:40.760 ,3,1,0.,12.0,0.,12.0,0.,12.0,0.,12.0
1979-07-27 12:25:52.760 ,3,1,0.,12.0,0.,12.0,0.,12.0,0.,12.0
1979-07-27 12:26:04.760 ,0,1,0.,12.0,0.,12.0,0.,12.0,0.,12.0
1979-07-27 12:26:16.760 ,0,1,0.,12.0,0.,12.0,0.,12.0,0.,12.0
1979-07-27 12:26:28.760 ,4,1,0.,12.0,0.,12.0,0.,12.0,0.,12.0
1979-07-27 12:26:40.760 ,4,1,0.,12.0,0.,12.0,0.,12.0,0.,12.0
1979-07-27 12:26:52.760 ,7,1,0.,12.0,0.,12.0,0.,12.0,0.,12.0
1979-07-27 12:27:04.760 ,7,1,0.,12.0,0.,12.0,0.,12.0,0.,12.0
1979-07-27 12:27:16.760 ,3,1,0.,12.0,0.,12.0,0.,12.0,0.,12.0
1979-07-27 12:27:28.760 ,3,1,0.,12.0,0.,12.0,0.,12.0,0.,12.0
1979-07-27 12:27:40.760 ,0,1,0.,12.0,0.,12.0,0.,12.0,0.,12.0
1979-07-27 12:27:52.760 ,0,1,0.,12.0,0.,12.0,0.,12.0,0.,12.0
1979-07-27 12:28:04.760 ,4,1,0.,12.0,0.,12.0,0.,12.0,0.,12.0
1979-07-27 12:28:16.760 ,4,1,0.,12.0,0.,12.0,0.,12.0,0.,12.0
1979-07-27 12:28:28.760 ,7,1,0.,12.0,0.,12.0,0.,12.0,0.,12.0
1979-07-27 12:28:40.760 ,7,1,0.,12.0,0.,12.0,0.,12.0,0.,12.0
1979-07-27 12:28:52.760 ,3,1,0.,12.0,0.,12.0,0.,12.0,0.,12.0
1979-07-27 12:29:04.760 ,3,1,0.,12.0,0.,12.0,0.,12.0,0.,12.0
1979-07-27 12:29:16.760 ,0,1,0.,12.0,0.,12.0,0.,12.0,0.,12.0
1979-07-27 12:29:28.760 ,0,1,0.,12.0,0.,12.0,0.,12.0,0.,12.0
1979-07-27 12:29:40.760 ,0,0,0.,12.0,0.,12.0,0.,12.0,0.,12.0
1979-07-27 12:29:52.760 ,0,0,0.,12.0,0.,12.0,0.,12.0,0.,12.0
1979-07-27 12:30:04.760 ,0,0,0.,12.0,0.,12.0,0.,12.0,0.,12.0
1979-07-27 12:30:16.760 ,0,0,0.,12.0,0.,12.0,0.,12.0,0.,12.0
1979-07-27 12:30:28.760 ,5,0,0.,12.0,0.,12.0,0.,12.0,0.,12.0
1979-07-27 12:30:40.760 ,5,0,0.,12.0,0.,12.0,0.,12.0,0.,12.0
1979-07-27 12:30:52.760 ,5,0,0.,12.0,0.,12.0,0.,12.0,0.,12.0
1979-07-27 12:31:04.760 ,5,0,0.,12.0,0.,12.0,0.,12.0,0.,12.0
1979-07-27 12:31:16.760 ,4,0,0.,12.0,0.,12.0,0.,12.0,0.,12.0
1979-07-27 12:31:28.760 ,4,0,0.,12.0,0.,12.0,0.,12.0,0.,12.0
1979-07-27 12:31:40.760 ,4,0,0.,12.0,0.,12.0,0.,12.0,0.,12.0
1979-07-27 12:31:52.760 ,4,0,0.,12.0,0.,12.0,0.,12.0,0.,12.0
1979-07-27 12:32:04.760 ,3,0,0.,12.0,0.,12.0,0.,12.0,0.,12.0
1979-07-27 12:32:16.760 ,3,0,0.,12.0,0.,12.0,0.,12.0,0.,12.0
1979-07-27 12:32:28.760 ,0,0,0.,12.0,0.,12.0,0.,12.0,0.,12.0
1979-07-27 12:32:40.760 ,0,0,,0,,0,,0,,0
1979-07-27 12:32:52.760 ,0,0,0.,12.0,0.,12.0,0.,12.0,0.,12.0
1979-07-27 12:33:04.760 ,0,0,0.,12.0,0.,12.0,0.,12.0,0.,12.0
1979-07-27 12:33:16.760 ,0,0,,0,,0,,0,,0
1979-07-27 12:33:28.760 ,0,0,,0,,0,,0,,0
1979-07-27 12:33:40.760 ,0,0,0.,12.0,0.,12.0,0.,12.0,0.,12.0
1979-07-27 12:33:52.760 ,0,0,0.,12.0,0.,12.0,0.,12.0,0.,12.0
1979-07-27 12:34:04.760 ,0,0,0.,12.0,0.,12.0,0.,12.0,0.,12.0
1979-07-27 12:34:16.760 ,0,0,0.,12.0,0.,12.0,0.,12.0,0.,12.0
1979-07-27 12:34:28.760 ,0,0,0.,12.0,0.,12.0,0.,12.0,0.,12.0
1979-07-27 12:34:40.760 ,0,0,0.,12.0,0.,12.0,0.,12.0,0.,12.0
1979-07-27 12:34:52.760 ,0,0,0.,12.0,0.,12.0,0.,12.0,0.,12.0
1979-07-27 12:35:04.760 ,0,0,0.,12.0,0.,12.0,0.,12.0,0.,12.0
1979-07-27 12:35:16.760 ,0,0,0.,12.0,0.,12.0,0.,12.0,0.,12.0
1979-07-27 12:35:28.760 ,0,0,0.,12.0,0.,12.0,0.,12.0,0.,12.0
1979-07-27 12:35:40.760 ,0,0,0.,12.0,0.,12.0,0.,12.0,0.,12.0
1979-07-27 12:35:52.760 ,0,0,0.,12.0,0.,12.0,0.,12.0,0.,12.0
1979-07-27 12:36:04.760 ,1,0,0.,12.0,0.,12.0,0.,12.0,0.,12.0
1979-07-27 12:36:16.760 ,1,0,0.,12.0,0.,12.0,0.,12.0,0.,12.0
1979-07-27 12:36:28.760 ,1,0,0.,12.0,0.,12.0,0.,12.0,0.,12.0
1979-07-27 12:36:40.760 ,1,0,0.,12.0,0.,12.0,0.,12.0,0.,12.0
1979-07-27 12:36:52.760 ,2,0,0.,12.0,0.,12.0,0.,12.0,0.,12.0
1979-07-27 12:37:04.760 ,2,0,0.,12.0,0.,12.0,0.,12.0,0.,12.0
1979-07-27 12:37:16.760 ,2,0,0.,12.0,0.,12.0,0.,12.0,0.,12.0
1979-07-27 12:37:28.760 ,2,0,0.,12.0,0.,12.0,0.,12.0,0.,12.0
1979-07-27 12:37:40.760 ,3,0,0.,12.0,0.,12.0,0.,12.0,0.,12.0
1979-07-27 12:37:52.760 ,3,0,0.,12.0,0.,12.0,0.,12.0,0.,12.0
1979-07-27 12:38:04.760 ,3,0,0.,12.0,0.,12.0,0.,12.0,0.,12.0
1979-07-27 12:38:16.760 ,3,0,0.,12.0,0.,12.0,0.,12.0,0.,12.0
1979-07-27 12:38:28.760 ,4,0,0.,12.0,0.,12.0,0.,12.0,0.,12.0
1979-07-27 12:38:40.760 ,4,0,0.,12.0,0.,12.0,0.,12.0,0.,12.0
1979-07-27 12:38:52.760 ,4,0,0.,12.0,0.,12.0,0.,12.0,0.,12.0
1979-07-27 12:39:04.760 ,4,0,0.,12.0,0.,12.0,0.,12.0,0.,12.0
1979-07-27 12:39:16.760 ,5,0,0.,12.0,0.,12.0,0.,12.0,0.,12.0
1979-07-27 12:39:28.760 ,5,0,0.,12.0,0.,12.0,0.,12.0,0.,12.0
1979-07-27 12:39:40.760 ,5,0,0.,12.0,0.,12.0,0.,12.0,0.,12.0
1979-07-27 12:39:52.760 ,5,0,0.,12.0,0.,12.0,0.,12.0,0.,12.0
1979-07-27 12:40:04.760 ,6,0,0.,12.0,0.,12.0,0.,12.0,0.,12.0
1979-07-27 12:40:16.760 ,6,0,0.,12.0,0.,12.0,0.,12.0,0.,12.0
1979-07-27 12:40:28.760 ,6,0,0.,12.0,0.,12.0,0.,12.0,0.,12.0
1979-07-27 12:40:40.760 ,6,0,0.,12.0,0.,12.0,0.,12.0,0.,12.0
1979-07-27 12:40:52.760 ,7,0,0.,12.0,0.,12.0,0.,12.0,0.,12.0
1979-07-27 12:41:04.760 ,7,0,0.,12.0,0.,12.0,0.,12.0,0.,12.0
1979-07-27 12:41:16.760 ,7,0,0.,12.0,0.,12.0,0.,12.0,0.,12.0
1979-07-27 12:41:28.760 ,7,0,0.,12.0,0.,12.0,0.,12.0,0.,12.0
1979-07-27 12:41:40.760 ,7,0,0.,12.0,0.,12.0,0.,12.0,0.,12.0
1979-07-27 12:41:52.760 ,7,0,0.,12.0,0.,12.0,0.,12.0,0.,12.0
1979-07-27 12:42:04.760 ,7,0,0.,12.0,0.,12.0,0.,12.0,0.,12.0
1979-07-27 12:42:16.760 ,7,0,0.,12.0,0.,12.0,0.,12.0,0.,12.0
1979-07-27 12:42:28.760 ,6,0,0.,12.0,0.,12.0,0.,12.0,0.,12.0
1979-07-27 12:42:40.760 ,6,0,0.,12.0,0.,12.0,0.,12.0,0.,12.0
1979-07-27 12:42:52.760 ,6,0,0.,12.0,0.,12.0,0.,12.0,0.,12.0
1979-07-27 12:43:04.760 ,6,0,0.,12.0,0.,12.0,0.,12.0,0.,12.0
1979-07-27 12:43:16.760 ,5,0,0.,12.0,0.,12.0,0.,12.0,0.,12.0
1979-07-27 12:43:28.760 ,5,0,0.,12.0,0.,12.0,0.,12.0,0.,12.0
1979-07-27 12:43:40.760 ,5,0,0.,12.0,0.,12.0,0.,12.0,0.,12.0
1979-07-27 12:43:52.760 ,5,0,0.,12.0,0.,12.0,0.,12.0,0.,12.0
1979-07-27 12:44:04.760 ,4,0,0.,12.0,0.,12.0,0.,12.0,0.,12.0
1979-07-27 12:44:16.760 ,4,0,0.,12.0,0.,12.0,0.,12.0,0.,12.0
1979-07-27 12:44:28.760 ,4,0,0.,12.0,0.,12.0,0.,12.0,0.,12.0
1979-07-27 12:44:40.760 ,4,0,0.,12.0,0.,12.0,0.,12.0,0.,12.0
1979-07-27 12:44:52.760 ,3,0,0.,12.0,0.,12.0,0.,12.0,0.,12.0
1979-07-27 12:45:04.760 ,3,0,0.,12.0,0.,12.0,0.,12.0,0.,12.0
1979-07-27 12:45:16.760 ,3,0,0.,12.0,0.,12.0,0.,12.0,0.,12.0
1979-07-27 12:45:28.760 ,3,0,0.,12.0,0.,12.0,0.,12.0,0.,12.0
1979-07-27 12:45:40.760 ,2,0,0.,12.0,0.,12.0,0.,12.0,0.,12.0
1979-07-27 12:45:52.760 ,2,0,0.,12.0,0.,12.0,0.,12.0,0.,12.0
1979-07-27 12:46:04.760 ,2,0,0.,12.0,0.,12.0,0.,12.0,0.,12.0
1979-07-27 12:46:16.760 ,2,0,0.,12.0,0.,12.0,0.,12.0,0.,12.0
1979-07-27 12:46:28.760 ,1,0,0.,12.0,0.,12.0,0.,12.0,0.,12.0
1979-07-27 12:46:40.760 ,1,0,0.,12.0,0.,12.0,0.,12.0,0.,12.0
1979-07-27 12:46:52.760 ,1,0,0.,12.0,0.,12.0,0.,12.0,0.,12.0
1979-07-27 12:47:04.760 ,1,0,0.,12.0,0.,12.0,0.,12.0,0.,12.0
1979-07-27 12:47:16.760 ,0,0,0.,12.0,0.,12.0,0.,12.0,0.,12.0
1979-07-27 12:47:28.760 ,0,0,0.,12.0,0.,12.0,0.,12.0,0.,12.0
1979-07-27 12:47:40.760 ,0,0,0.,12.0,0.,12.0,0.,12.0,0.,12.0
1979-07-27 12:47:52.760 ,0,0,0.,12.0,0.,12.0,0.,12.0,0.,12.0
1979-07-27 12:48:04.760 ,0,0,0.,12.0,0.,12.0,0.,12.0,0.,12.0
1979-07-27 12:48:16.760 ,0,0,0.,12.0,0.,12.0,0.,12.0,0.,12.0
1979-07-27 12:48:28.760 ,0,0,0.,12.0,0.,12.0,0.,12.0,0.,12.0
1979-07-27 12:48:40.760 ,0,0,0.,12.0,0.,12.0,0.,12.0,0.,12.0
1979-07-27 12:48:52.760 ,1,0,0.,12.0,0.,12.0,0.,12.0,0.,12.0
1979-07-27 12:49:04.760 ,1,0,0.,12.0,0.,12.0,0.,12.0,0.,12.0
1979-07-27 12:49:16.760 ,1,0,0.,12.0,0.,12.0,0.,12.0,0.,12.0
1979-07-27 12:49:28.760 ,1,0,0.,12.0,0.,12.0,0.,12.0,0.,12.0
1979-07-27 12:49:40.760 ,2,0,0.,12.0,0.,12.0,0.,12.0,0.,12.0
1979-07-27 12:49:52.760 ,2,0,0.,12.0,0.,12.0,0.,12.0,0.,12.0
1979-07-27 12:50:04.760 ,2,0,0.,12.0,0.,12.0,0.,12.0,0.,12.0
1979-07-27 12:50:16.760 ,2,0,0.,12.0,0.,12.0,0.,12.0,0.,12.0
1979-07-27 12:50:28.760 ,3,0,0.,12.0,0.,12.0,0.,12.0,0.,12.0
1979-07-27 12:50:40.760 ,3,0,0.,12.0,0.,12.0,0.,12.0,0.,12.0
1979-07-27 12:50:52.760 ,3,0,0.,12.0,0.,12.0,0.,12.0,0.,12.0
1979-07-27 12:51:04.760 ,3,0,0.,12.0,0.,12.0,0.,12.0,0.,12.0
1979-07-27 12:51:16.760 ,4,0,0.,12.0,0.,12.0,0.,12.0,0.,12.0
1979-07-27 12:51:28.760 ,4,0,0.,12.0,0.,12.0,0.,12.0,0.,12.0
1979-07-27 12:51:40.760 ,4,0,0.,12.0,0.,12.0,0.,12.0,0.,12.0
1979-07-27 12:51:52.760 ,4,0,0.,12.0,0.,12.0,0.,12.0,0.,12.0
1979-07-27 12:52:04.760 ,5,0,0.,12.0,0.,12.0,0.,12.0,0.,12.0
1979-07-27 12:52:16.760 ,5,0,0.,12.0,0.,12.0,0.,12.0,0.,12.0
1979-07-27 12:52:28.760 ,5,0,0.,12.0,0.,12.0,0.,12.0,0.,12.0
1979-07-27 12:52:40.760 ,5,0,0.,12.0,0.,12.0,0.,12.0,0.,12.0
1979-07-27 12:52:52.760 ,6,0,0.,12.0,0.,12.0,0.,12.0,0.,12.0
1979-07-27 12:53:04.760 ,6,0,0.,12.0,0.,12.0,0.,12.0,0.,12.0
1979-07-27 12:53:16.760 ,6,0,0.,12.0,0.,12.0,0.,12.0,0.,12.0
1979-07-27 12:53:28.760 ,6,0,0.,12.0,0.,12.0,0.,12.0,0.,12.0
1979-07-27 12:53:40.760 ,7,0,0.,12.0,0.,12.0,0.,12.0,0.,12.0
1979-07-27 12:53:52.760 ,7,0,0.,12.0,0.,12.0,0.,12.0,0.,12.0
1979-07-27 12:54:04.760 ,7,0,0.,12.0,0.,12.0,0.,12.0,0.,12.0
1979-07-27 12:54:16.760 ,7,0,0.,12.0,0.,12.0,0.,12.0,0.,12.0
1979-07-27 12:54:28.760 ,7,0,0.,12.0,0.,12.0,0.,12.0,0.,12.0
1979-07-27 12:54:40.760 ,7,0,0.,12.0,0.,12.0,0.,12.0,0.,12.0
1979-07-27 12:54:52.760 ,7,0,0.,12.0,0.,12.0,0.,12.0,0.,12.0
1979-07-27 12:55:04.760 ,7,0,0.,12.0,0.,12.0,0.,12.0,0.,12.0
1979-07-27 12:55:16.760 ,6,0,0.,12.0,0.,12.0,0.,12.0,0.,12.0
1979-07-27 12:55:28.760 ,6,0,0.,12.0,0.,12.0,0.,12.0,0.,12.0
1979-07-27 12:55:40.760 ,6,0,0.,12.0,0.,12.0,0.,12.0,0.,12.0
1979-07-27 12:55:52.760 ,6,0,0.,12.0,0.,12.0,0.,12.0,0.,12.0
1979-07-27 12:56:04.760 ,5,0,0.,12.0,0.,12.0,0.,12.0,0.,12.0
1979-07-27 12:56:16.760 ,5,0,0.,12.0,0.,12.0,0.,12.0,0.,12.0
1979-07-27 12:56:28.760 ,5,0,0.,12.0,0.,12.0,0.,12.0,0.,12.0
1979-07-27 12:56:40.760 ,5,0,0.,12.0,0.,12.0,0.,12.0,0.,12.0
1979-07-27 12:56:52.760 ,4,0,0.,12.0,0.,12.0,0.,12.0,0.,12.0
1979-07-27 12:57:04.760 ,4,0,0.,12.0,0.,12.0,0.,12.0,0.,12.0
1979-07-27 12:57:16.760 ,4,0,0.,12.0,0.,12.0,0.,12.0,0.,12.0
1979-07-27 12:57:28.760 ,4,0,0.,12.0,0.,12.0,0.,12.0,0.,12.0
1979-07-27 12:57:40.760 ,3,0,0.,12.0,0.,12.0,0.,12.0,0.,12.0
1979-07-27 12:57:52.760 ,3,0,0.,12.0,0.,12.0,0.,12.0,0.,12.0
1979-07-27 12:58:04.760 ,3,0,0.,12.0,0.,12.0,0.,12.0,0.,12.0
1979-07-27 12:58:16.760 ,3,0,0.,12.0,0.,12.0,0.,12.0,0.,12.0
1979-07-27 12:58:28.760 ,2,0,0.,12.0,0.,12.0,0.,12.0,0.,12.0
1979-07-27 12:58:40.760 ,2,0,0.,12.0,0.,12.0,0.,12.0,0.,12.0
1979-07-27 12:58:52.760 ,2,0,0.,12.0,0.,12.0,0.,12.0,0.,12.0
1979-07-27 12:59:04.760 ,2,0,0.,12.0,0.,12.0,0.,12.0,0.,12.0
1979-07-27 12:59:16.760 ,1,0,0.,12.0,0.,12.0,0.,12.0,0.,12.0
1979-07-27 12:59:28.760 ,1,0,0.,12.0,0.,12.0,0.,12.0,0.,12.0
1979-07-27 12:59:40.760 ,1,0,0.,12.0,0.,12.0,0.,12.0,0.,12.0
1979-07-27 12:59:52.760 ,1,0,0.,12.0,0.,12.0,0.,12.0,0.,12.0
1979-07-27 13:00:04.760 ,0,0,0.,12.0,0.,12.0,0.,12.0,0.,12.0
1979-07-27 13:00:16.760 ,0,0,0.,12.0,0.,12.0,0.,12.0,0.,12.0
1979-07-27 13:00:28.760 ,0,0,0.,12.0,0.,12.0,0.,12.0,0.,12.0
1979-07-27 13:00:40.760 ,0,0,0.,12.0,0.,12.0,0.,12.0,0.,12.0
1979-07-27 13:00:52.760 ,0,0,0.,12.0,0.,12.0,0.,12.0,0.,12.0
1979-07-27 13:01:04.760 ,0,0,0.,12.0,0.,12.0,0.,12.0,0.,12.0
1979-07-27 13:01:16.760 ,0,0,0.,12.0,0.,12.0,0.,12.0,0.,12.0
1979-07-27 13:01:28.760 ,0,0,0.,12.0,0.,12.0,0.,12.0,0.,12.0
1979-07-27 13:01:40.760 ,1,0,0.,12.0,0.,12.0,0.,12.0,0.,12.0
1979-07-27 13:01:52.760 ,1,0,0.,12.0,0.,12.0,0.,12.0,0.,12.0
1979-07-27 13:02:04.760 ,1,0,0.,12.0,0.,12.0,0.,12.0,0.,12.0
1979-07-27 13:02:16.760 ,1,0,0.,12.0,0.,12.0,0.,12.0,0.,12.0
1979-07-27 13:02:28.760 ,2,0,0.,12.0,0.,12.0,0.,12.0,0.,12.0
1979-07-27 13:02:40.760 ,2,0,0.,12.0,0.,12.0,0.,12.0,0.,12.0
1979-07-27 13:02:52.760 ,2,0,0.,12.0,0.,12.0,0.,12.0,0.,12.0
1979-07-27 13:03:04.760 ,2,0,0.,12.0,0.,12.0,0.,12.0,0.,12.0
1979-07-27 13:03:16.760 ,3,0,0.,12.0,0.,12.0,0.,12.0,0.,12.0
1979-07-27 13:03:28.760 ,3,0,0.,12.0,0.,12.0,0.,12.0,0.,12.0
1979-07-27 13:03:40.760 ,3,0,0.,12.0,0.,12.0,0.,12.0,0.,12.0
1979-07-27 13:03:52.760 ,3,0,0.,12.0,0.,12.0,0.,12.0,0.,12.0
1979-07-27 13:04:04.760 ,4,0,0.,12.0,0.,12.0,0.,12.0,0.,12.0
1979-07-27 13:04:16.760 ,4,0,0.,12.0,0.,12.0,0.,12.0,0.,12.0
1979-07-27 13:04:28.760 ,4,0,0.,12.0,0.,12.0,0.,12.0,0.,12.0
1979-07-27 13:04:40.760 ,4,0,0.,12.0,0.,12.0,0.,12.0,0.,12.0
1979-07-27 13:04:52.760 ,5,0,0.,12.0,0.,12.0,0.,12.0,0.,12.0
1979-07-27 13:05:04.760 ,5,0,0.,12.0,0.,12.0,0.,12.0,0.,12.0
1979-07-27 13:05:16.760 ,5,0,0.,12.0,0.,12.0,0.,12.0,0.,12.0
1979-07-27 13:05:28.760 ,5,0,0.,12.0,0.,12.0,0.,12.0,0.,12.0
1979-07-27 13:05:40.760 ,6,0,0.,12.0,0.,12.0,0.,12.0,0.,12.0
1979-07-27 13:05:52.760 ,6,0,0.,12.0,0.,12.0,0.,12.0,0.,12.0
1979-07-27 13:06:04.760 ,6,0,0.,12.0,0.,12.0,0.,12.0,0.,12.0
1979-07-27 13:06:16.760 ,6,0,0.,12.0,0.,12.0,0.,12.0,0.,12.0
1979-07-27 13:06:28.760 ,7,0,0.,12.0,0.,12.0,0.,12.0,0.,12.0
1979-07-27 13:06:40.760 ,7,0,0.,12.0,0.,12.0,0.,12.0,0.,12.0
1979-07-27 13:06:52.760 ,7,0,0.,12.0,0.,12.0,0.,12.0,0.,12.0
1979-07-27 13:07:04.760 ,7,0,0.,12.0,0.,12.0,0.,12.0,0.,12.0
1979-07-27 13:07:16.760 ,3,1,0.,12.0,0.,12.0,0.,12.0,0.,12.0
1979-07-27 13:07:28.760 ,3,1,0.,12.0,0.,12.0,0.,12.0,0.,12.0
1979-07-27 13:07:40.760 ,0,1,0.,12.0,0.,12.0,0.,12.0,0.,12.0
1979-07-27 13:07:52.760 ,0,1,0.,12.0,0.,12.0,0.,12.0,0.,12.0
1979-07-27 13:08:04.760 ,4,1,0.,12.0,0.,12.0,0.,12.0,0.,12.0
1979-07-27 13:08:16.760 ,4,1,0.,12.0,0.,12.0,0.,12.0,0.,12.0
1979-07-27 13:08:28.760 ,7,1,0.,12.0,0.,12.0,0.,12.0,0.,12.0
1979-07-27 13:08:40.760 ,7,1,0.,12.0,0.,12.0,0.,12.0,0.,12.0
1979-07-27 13:08:52.760 ,3,1,0.,12.0,0.,12.0,0.,12.0,0.,12.0
1979-07-27 13:09:04.760 ,3,1,0.,12.0,0.,12.0,0.,12.0,0.,12.0
1979-07-27 13:09:16.760 ,0,1,0.,12.0,0.,12.0,0.,12.0,0.,12.0
1979-07-27 13:09:28.760 ,0,1,0.,12.0,0.,12.0,0.,12.0,0.,12.0
1979-07-27 13:09:40.760 ,4,1,0.,12.0,0.,12.0,0.,12.0,0.,12.0
1979-07-27 13:09:52.760 ,4,1,0.,12.0,0.,12.0,0.,12.0,0.,12.0
1979-07-27 13:10:04.760 ,7,1,0.,12.0,0.,12.0,0.,12.0,0.,12.0
1979-07-27 13:10:16.760 ,7,1,0.,12.0,0.,12.0,0.,12.0,0.,12.0
1979-07-27 13:10:28.760 ,3,1,0.,12.0,0.,12.0,0.,12.0,0.,12.0
1979-07-27 13:10:40.760 ,3,1,0.,12.0,0.,12.0,0.,12.0,0.,12.0
1979-07-27 13:10:52.760 ,0,1,0.,12.0,0.,12.0,0.,12.0,0.,12.0
1979-07-27 13:11:04.760 ,0,1,0.,12.0,0.,12.0,0.,12.0,0.,12.0
1979-07-27 13:11:16.760 ,4,1,0.,12.0,0.,12.0,0.,12.0,0.,12.0
1979-07-27 13:11:28.760 ,4,1,0.,12.0,0.,12.0,0.,12.0,0.,12.0
1979-07-27 13:11:40.760 ,7,1,0.,12.0,0.,12.0,0.,12.0,0.,12.0
1979-07-27 13:11:52.760 ,7,1,0.,12.0,0.,12.0,0.,12.0,0.,12.0
1979-07-27 13:12:04.760 ,3,1,0.,12.0,0.,12.0,0.,12.0,0.,12.0
1979-07-27 13:12:16.760 ,3,1,0.,12.0,0.,12.0,0.,12.0,0.,12.0
1979-07-27 13:12:28.760 ,0,1,0.,12.0,0.,12.0,0.,12.0,0.,12.0
1979-07-27 13:12:40.760 ,0,1,0.,12.0,0.,12.0,0.,12.0,0.,12.0
1979-07-27 13:12:52.760 ,4,1,0.,12.0,0.,12.0,0.,12.0,0.,12.0
1979-07-27 13:13:04.760 ,4,1,0.,12.0,0.,12.0,0.,12.0,0.,12.0
1979-07-27 13:13:16.760 ,7,1,0.,12.0,0.,12.0,0.,12.0,0.,12.0
1979-07-27 13:13:28.760 ,7,1,0.,12.0,0.,12.0,0.,12.0,0.,12.0
1979-07-27 13:13:40.760 ,3,1,0.,12.0,0.,12.0,0.,12.0,0.,12.0
1979-07-27 13:13:52.760 ,3,1,0.,12.0,0.,12.0,0.,12.0,0.,12.0
1979-07-27 13:14:04.760 ,0,1,0.,12.0,0.,12.0,0.,12.0,0.,12.0
1979-07-27 13:14:16.760 ,0,1,0.,12.0,0.,12.0,0.,12.0,0.,12.0
1979-07-27 13:14:28.760 ,4,1,0.,12.0,0.,12.0,0.,12.0,0.,12.0
1979-07-27 13:14:40.760 ,4,1,0.,12.0,0.,12.0,0.,12.0,0.,12.0
1979-07-27 13:14:52.760 ,7,1,0.,12.0,0.,12.0,0.,12.0,0.,12.0
1979-07-27 13:15:04.760 ,7,1,0.,12.0,0.,12.0,0.,12.0,0.,12.0
1979-07-27 13:15:16.760 ,3,1,0.,12.0,0.,12.0,0.,12.0,0.,12.0
1979-07-27 13:15:28.760 ,3,1,0.,12.0,0.,12.0,0.,12.0,0.,12.0
1979-07-27 13:15:40.760 ,0,1,0.,12.0,0.,12.0,0.,12.0,0.,12.0
1979-07-27 13:15:52.760 ,0,1,0.,12.0,0.,12.0,0.,12.0,0.,12.0
1979-07-27 13:16:04.760 ,4,1,0.,12.0,0.,12.0,0.,12.0,0.,12.0
1979-07-27 13:16:16.760 ,4,1,0.,12.0,0.,12.0,0.,12.0,0.,12.0
1979-07-27 13:16:28.760 ,7,1,0.,12.0,0.,12.0,0.,12.0,0.,12.0
1979-07-27 13:16:40.760 ,7,1,0.,12.0,0.,12.0,0.,12.0,0.,12.0
1979-07-27 13:16:52.760 ,3,1,0.,12.0,0.,12.0,0.,12.0,0.,12.0
1979-07-27 13:17:04.760 ,3,1,0.,12.0,0.,12.0,0.,12.0,0.,12.0
1979-07-27 13:17:16.760 ,0,1,0.,12.0,0.,12.0,0.,12.0,0.,12.0
1979-07-27 13:17:28.760 ,0,1,0.,12.0,0.,12.0,0.,12.0,0.,12.0
1979-07-27 13:17:40.760 ,0,0,0.,12.0,0.,12.0,0.,12.0,0.,12.0